Hourly Weather Roundup
Issued by NWS Central Illinois

Home | Current Version | Previous Version | Text Only | Print | Product List | Glossary On
Versions: 1 2 3 4 5 6 7 8 9 10 11 12 13 14 15 16 17 18 19 20 21 22 23 24 25 26 27 28 29 30 31 32 33 34 35 36 37 38 39 40 41 42 43 44 45 46 47 48 49 50
000
NZUS43 KILX 240510
HWRILX

AREA WEATHER ROUNDUP
NATIONAL WEATHER SERVICE, LINCOLN IL
1200 AM CDT WED AUG 24 2016


CITY           SKY/WX    TMP DP  RH WIND       PRES   REMARKS
BLOOMINGTON    CLEAR     69  65  86 S15       30.10F
CHAMPAIGN      PTCLDY    69  65  86 S8        30.12F
DANVILLE       PTCLDY    67  65  92 S5        30.10F
DECATUR        CLEAR     72  65  78 S10       30.11F
EFFINGHAM      CLOUDY    71  68  90 SE6       30.14F
FLORA          CLOUDY    71  69  92 SE5       30.14F
GALESBURG      CLOUDY    69  67  91 S8        30.04F
JACKSONVILLE   PTCLDY    72  68  89 S10       30.06F
LACON          CLEAR     71  65  83 S7        30.06S
LAWRENCEVILLE  CLOUDY    71  66  84 SE6       30.16S
LITCHFIELD     MOCLDY    70  66  88 SE8       30.10F
$$


CITY           SKY/WX    TMP DP  RH WIND       PRES   REMARKS
LINCOLN        CLEAR     70  67  91 S7        30.07F
MACOMB         PTCLDY    69  68  97 S9        30.06F
MATTOON        CLOUDY    70  63  78 S9        30.13F
MT CARMEL AP   CLOUDY    70  66  88 CALM      30.15F
OLNEY-NOBLE AP CLOUDY    70  68  94 SE5       30.15F
PARIS          PTCLDY    66  65  96 CALM      30.15S
PEORIA         PTCLDY    71  67  87 S12       30.07S
PONTIAC        CLOUDY    70  69  95 S6        30.11S
RANTOUL        CLOUDY    70  67  90 S6        30.12F
ROBINSON       CLOUDY    68  65  89 S5        30.16F
SPRINGFIELD    CLEAR     73  68  84 S13G21    30.08S
TAYLORVILLE    MOCLDY    71  68  89 S10       30.10S
$$

...REGIONAL REPORTS...


CITY           SKY/WX    TMP DP  RH WIND       PRES   REMARKS
CHICAGO O`HARE CLOUDY    74  62  66 S12       30.07F
KANKAKEE       PTCLDY    68  64  86 S5        30.12S
MOLINE         CLOUDY    73  67  81 S10G20    30.00F
MOUNT STERLING CLOUDY    70  69  94 S9        30.04F
MOUNT VERNON   MOCLDY    73  66  78 SE3       30.14F
PITTSFIELD     MOCLDY    72  70  95 SE7       30.06F
QUINCY         MOCLDY    73  72  96 S10       30.02F
ROCKFORD       CLOUDY    73  65  75 S15       30.05F
$$


CITY           SKY/WX    TMP DP  RH WIND       PRES   REMARKS
BURLINGTON     CLOUDY    72  70  93 S9        30.01F
CEDAR RAPIDS   CLOUDY    73  72  96 S12G22    29.95S
DES MOINES     CLOUDY    77  73  87 S15G23    29.85F
KIRKSVILLE     CLOUDY    73  71  93 S13       29.98F
OTTUMWA        CLOUDY    74  70  87 S13       29.93F
ST LOUIS       MOCLDY    76  71  85 SE12      30.08F
$$


CITY           SKY/WX    TMP DP  RH WIND       PRES   REMARKS
TERRE HAUTE    CLOUDY    71  64  78 S7        30.15S
EVANSVILLE     CLOUDY    74  66  76 SE5       30.16S
INDIANAPOLIS   CLOUDY    70  63  78 SE9       30.15F
LAFAYETTE      CLOUDY    69  64  84 SE3       30.12F
MADISON        CLOUDY    73  65  75 S18G25    29.99F
MILWAUKEE      MOCLDY    73  61  65 S9        30.04F
$$





USA.gov is the U.S. government's official web portal to all federal, state and local government web resources and services.